Location: Newark
(38.1089°N, 103.8675°W)
Time: 19:07:51
(UTC+00:00)

Envisat - Pass Details

Date: 17 December 2019
Orbit: 764 x 766 km, 98.1° (Epoch: 28 January)

Event Time Altitude Azimuth Distance (km) Brightness Sun altitude
Rises 01:31:31 0° 187° (S) 3,217 6.5 -21.8°
Reaches altitude 10° 01:33:59 10° 196° (SSW) 2,295 5.8 -22.2°
Maximum altitude 01:38:37 36° 263° (W) 1,192 4.5 -23.1°
Drops below altitude 10° 01:43:18 10° 330° (NNW) 2,310 5.7 -24.0°
Sets 01:45:48 0° 338° (NNW) 3,240 6.4 -24.5°
